Weather History for Marfa, TX

Change the Weather History Date:

Wednesday, October 20, 2010

  Actual Average Record
Temperature  
Mean Temperature 64 °F -  
Max Temperature 80 °F 70 °F 84 °F (2001)
Min Temperature 48 °F 42 °F 26 °F (1999)
Degree Days  
Heating Degree Days 1    
Growing Degree Days 14 (Base 50)    
Moisture  
Dew Point 49 °F    
Average Humidity 61    
Maximum Humidity 93    
Minimum Humidity 30    
Precipitation  
Precipitation 0.00 in - - ()
Sea Level Pressure  
Sea Level Pressure 30.12 in    
Wind  
Wind Speed 7 mph (ENE)    
Max Wind Speed 14 mph    
Max Gust Speed 28 mph    
Visibility 10 miles    
Events      
Averages and records for this station are not official NWS values.
T = Trace of Precipitation, MM = Missing Value Source: NWS Daily Summary

Daily Weather History Graph

Daily Weather History Graph

Search for Another Location

Airport:

Trip Planner

Search our weather history database for the weather conditions in past years. The results will help you decide how hot, cold, wet, or windy it might be!

Date:

Astronomy

Oct. 20, 2010 Rise Set
Actual Time 8:01 AM CDT 7:19 PM CDT
Civil Twilight 7:37 AM CDT 7:43 PM CDT
Nautical Twilight 7:09 AM CDT 8:11 PM CDT
Astronomical Twilight 6:41 AM CDT 8:39 PM CDT
Moon 5:50 PM CDT (10/20) 5:52 AM CDT (10/20)
Length of Visible Light 12h 06m
Length of Day
11h 17m
Waxing Gibbous, 95% of the Moon is Illuminated
Oct 20
Waxing Gibbous
Oct 22
Full
Oct 30
Last Quarter
Nov 5
New
Nov 13
First Quarter

Hourly Weather History & Observations

Time (CDT) Temp. Dew Point Humidity Pressure Visibility Wind Dir Wind Speed Gust Speed Precip Events Conditions
12:15 AM 60.8 °F 44.6 °F 55% 30.14 in 10.0 mi NNW 3.5 mph - N/A   Clear
12:35 AM 62.6 °F 44.6 °F 52% 30.13 in 10.0 mi North 5.8 mph - N/A   Partly Cloudy
12:55 AM 60.8 °F 44.6 °F 55% 30.13 in 10.0 mi North 6.9 mph - N/A   Clear
1:15 AM 57.2 °F 44.6 °F 63% 30.12 in 10.0 mi North 6.9 mph - N/A   Clear
1:35 AM 57.2 °F 44.6 °F 63% 30.12 in 10.0 mi North 5.8 mph - N/A   Clear
1:55 AM 55.4 °F 44.6 °F 67% 30.12 in 10.0 mi North 8.1 mph - N/A   Clear
2:15 AM 55.4 °F 44.6 °F 67% 30.12 in 10.0 mi North 6.9 mph - N/A   Clear
2:35 AM 55.4 °F 44.6 °F 67% 30.12 in 10.0 mi North 9.2 mph - N/A   Clear
2:55 AM 55.4 °F 44.6 °F 67% 30.12 in 10.0 mi North 8.1 mph - N/A   Clear
3:15 AM 55.4 °F 46.4 °F 72% 30.12 in 10.0 mi North 8.1 mph - N/A   Clear
3:35 AM 53.6 °F 46.4 °F 77% 30.11 in 10.0 mi North 6.9 mph - N/A   Clear
3:55 AM 51.8 °F 44.6 °F 76% 30.11 in 10.0 mi NNE 8.1 mph - N/A   Scattered Clouds
4:15 AM 51.8 °F 46.4 °F 82% 30.11 in 10.0 mi North 5.8 mph - N/A   Overcast
4:35 AM 51.8 °F 46.4 °F 82% 30.11 in 10.0 mi NNE 5.8 mph - N/A   Scattered Clouds
4:55 AM 51.8 °F 46.4 °F 82% 30.11 in 10.0 mi NE 4.6 mph - N/A   Clear
5:15 AM 50.0 °F 46.4 °F 87% 30.11 in 10.0 mi North 4.6 mph - N/A   Clear
5:35 AM 48.2 °F 44.6 °F 87% 30.11 in 10.0 mi North 4.6 mph - N/A   Clear
5:55 AM 48.2 °F 46.4 °F 93% 30.11 in 10.0 mi NNE 5.8 mph - N/A   Clear
6:15 AM 48.2 °F 46.4 °F 93% 30.12 in 10.0 mi North 5.8 mph - N/A   Clear
6:35 AM 48.2 °F 46.4 °F 93% 30.12 in 10.0 mi North 5.8 mph - N/A   Clear
6:55 AM 51.8 °F 46.4 °F 82% 30.13 in 10.0 mi NNE 4.6 mph - N/A   Clear
7:15 AM 53.6 °F 48.2 °F 82% 30.13 in 10.0 mi NE 5.8 mph - N/A   Clear
7:35 AM 53.6 °F 50.0 °F 88% 30.14 in 10.0 mi NNE 5.8 mph - N/A   Clear
7:55 AM 53.6 °F 50.0 °F 88% 30.14 in 10.0 mi North 5.8 mph - N/A   Clear
8:15 AM 53.6 °F 50.0 °F 88% 30.14 in 10.0 mi North 5.8 mph - N/A   Clear
8:35 AM 55.4 °F 51.8 °F 88% 30.15 in 10.0 mi Calm Calm - N/A   Clear
8:55 AM 57.2 °F 51.8 °F 82% 30.16 in 10.0 mi Calm Calm - N/A   Clear
9:15 AM 59.0 °F 51.8 °F 77% 30.16 in 10.0 mi Calm Calm - N/A   Clear
9:35 AM 62.6 °F 53.6 °F 72% 30.16 in 10.0 mi NE 4.6 mph - N/A   Clear
9:55 AM 64.4 °F 55.4 °F 73% 30.17 in 10.0 mi ENE 10.4 mph - N/A   Clear
10:15 AM 66.2 °F 55.4 °F 68% 30.18 in 10.0 mi NE 8.1 mph - N/A   Clear
10:35 AM 68.0 °F 55.4 °F 64% 30.18 in 10.0 mi ENE 10.4 mph - N/A   Clear
10:55 AM 69.8 °F 55.4 °F 60% 30.18 in 10.0 mi East 9.2 mph - N/A   Clear
11:15 AM 69.8 °F 53.6 °F 56% 30.19 in 10.0 mi East 10.4 mph - N/A   Clear
11:35 AM 71.6 °F 53.6 °F 53% 30.19 in 10.0 mi SE 9.2 mph - N/A   Clear
11:55 AM 73.4 °F 53.6 °F 50% 30.18 in 10.0 mi SE 10.4 mph - N/A   Clear
12:15 PM 71.6 °F 53.6 °F 53% 30.18 in 10.0 mi ESE 9.2 mph - N/A   Clear
12:35 PM 73.4 °F 55.4 °F 53% 30.17 in 10.0 mi ESE 4.6 mph - N/A   Clear
12:55 PM 75.2 °F 55.4 °F 50% 30.16 in 10.0 mi East 9.2 mph - N/A   Clear
1:15 PM 75.2 °F 53.6 °F 47% 30.15 in 10.0 mi ENE 4.6 mph 16.1 mph N/A   Partly Cloudy
1:35 PM 77.0 °F 51.8 °F 41% 30.14 in 10.0 mi ESE 10.4 mph - N/A   Scattered Clouds
1:55 PM 77.0 °F 51.8 °F 41% 30.13 in 10.0 mi SE 11.5 mph - N/A   Partly Cloudy
2:15 PM 78.8 °F 51.8 °F 39% 30.12 in 10.0 mi SE 13.8 mph 18.4 mph N/A   Clear
2:35 PM 78.8 °F 50.0 °F 36% 30.11 in 10.0 mi South 10.4 mph - N/A   Partly Cloudy
2:55 PM 78.8 °F 50.0 °F 36% 30.10 in 10.0 mi SE 11.5 mph 19.6 mph N/A   Partly Cloudy
3:15 PM 78.8 °F 50.0 °F 36% 30.09 in 10.0 mi ESE 13.8 mph 27.6 mph N/A   Scattered Clouds
3:35 PM 78.8 °F 48.2 °F 34% 30.08 in 10.0 mi East 9.2 mph 20.7 mph N/A   Scattered Clouds
3:55 PM 80.6 °F 48.2 °F 32% 30.08 in 10.0 mi East 11.5 mph 17.3 mph N/A   Mostly Cloudy
4:15 PM 80.6 °F 46.4 °F 30% 30.07 in 10.0 mi SE 10.4 mph - N/A   Mostly Cloudy
4:35 PM 78.8 °F 48.2 °F 34% 30.07 in 10.0 mi East 10.4 mph 16.1 mph N/A   Mostly Cloudy
4:55 PM 80.6 °F 48.2 °F 32% 30.07 in 10.0 mi SE 9.2 mph 18.4 mph N/A   Mostly Cloudy
5:15 PM 80.6 °F 48.2 °F 32% 30.07 in 10.0 mi East 13.8 mph 21.9 mph N/A   Scattered Clouds
5:35 PM 75.2 °F 50.0 °F 41% 30.07 in 10.0 mi ESE 4.6 mph 18.4 mph N/A   Scattered Clouds
5:55 PM 77.0 °F 50.0 °F 39% 30.07 in 10.0 mi SE 12.7 mph - N/A   Partly Cloudy
6:15 PM 77.0 °F 50.0 °F 39% 30.07 in 10.0 mi ESE 11.5 mph 16.1 mph N/A   Clear
6:35 PM 75.2 °F 50.0 °F 41% 30.07 in 10.0 mi ESE 12.7 mph - N/A   Clear
6:55 PM 73.4 °F 50.0 °F 44% 30.07 in 10.0 mi ESE 11.5 mph - N/A   Clear
7:15 PM 71.6 °F 50.0 °F 46% 30.07 in 10.0 mi ESE 10.4 mph - N/A   Clear
7:35 PM 69.8 °F 50.0 °F 49% 30.08 in 10.0 mi ESE 9.2 mph - N/A   Clear
7:55 PM 66.2 °F 50.0 °F 56% 30.08 in 10.0 mi East 6.9 mph - N/A   Clear
8:15 PM 64.4 °F 48.2 °F 56% 30.08 in 10.0 mi East 9.2 mph - N/A   Clear
8:35 PM 64.4 °F 51.8 °F 64% 30.08 in 10.0 mi East 9.2 mph - N/A   Clear
8:55 PM 64.4 °F 53.6 °F 68% 30.08 in 10.0 mi East 10.4 mph - N/A   Clear
9:15 PM 64.4 °F 53.6 °F 68% 30.08 in 10.0 mi East 9.2 mph - N/A   Clear
9:35 PM 64.4 °F 53.6 °F 68% 30.09 in 10.0 mi East 8.1 mph - N/A   Clear
9:55 PM 62.6 °F 55.4 °F 77% 30.10 in 10.0 mi East 8.1 mph - N/A   Clear
10:15 PM 60.8 °F 55.4 °F 82% 30.11 in 10.0 mi North 4.6 mph - N/A   Clear
10:35 PM 60.8 °F 55.4 °F 82% 30.12 in 10.0 mi North 3.5 mph - N/A   Clear
10:55 PM 62.6 °F 55.4 °F 77% 30.12 in 10.0 mi ENE 4.6 mph - N/A   Clear
11:15 PM 60.8 °F 53.6 °F 77% 30.13 in 10.0 mi East 3.5 mph - N/A   Clear
11:35 PM 59.0 °F 53.6 °F 82% 30.13 in 10.0 mi Calm Calm - N/A   Clear
11:55 PM 55.4 °F 51.8 °F 88% 30.12 in 10.0 mi NNE 3.5 mph - N/A   Clear